Powrót do katalogu

CZ-6A DEB

AktywnyPO
NORAD 61497·DEBRIS·🇨🇳 China

Wystrzelony Aug 6, 2024 z Taiyuan Satellite Launch Center

Loading…

Następne Przeloty (najbliższe 24 godziny)

TLE

ŚwieżeSource: Space-Track

Epoka: Sep 13, 2026, 22:34 UTC

1 61497U 24140ABF 26256.94077523  .00002042  00000-0  35217-3 0  9995
2 61497  88.9970 258.8420 0124972 304.8125  54.1381 14.63100448109965

Śledź CZ-6A DEB w czasie rzeczywistym z AllMySat

Download on the App Store